Location: *
(49.8044°N, 4.0558°E)
Time: 08:57:47
(UTC+00:00)

Daily predictions for brighter satellites

Satellite Brightness Start Highest point End
(mag) Time Altitude Azimuth Time Altitude Azimuth Time Altitude Azimuth
Cosmos 2058 Rocket 3.9 18:56:06 10° SSE 19:00:03 31° E 19:04:00 10° NNE
STARLINK-1202 3.9 18:55:55 10° WNW 19:00:03 62° NNE 19:04:10 10° E
Cosmos 1461 3.1 18:57:43 10° NW 19:02:15 84° NE 19:06:55 10° SE
STARLINK-1228 2.9 18:59:24 10° WNW 19:02:20 68° SSW 19:05:16 10° ESE
Cosmos 1726 Rocket 3.8 18:58:23 10° SSE 19:02:37 48° E 19:06:55 10° NNE
SL-08 RB Rocket 4.0 18:59:02 10° SE 19:03:26 49° ENE 19:07:54 10° N
IRIDIUM 103 4.4 18:58:12 10° N 19:03:28 90° W 19:08:41 10° S
Cosmos 921 Rocket 3.4 19:00:44 10° N 19:04:46 44° ENE 19:08:48 10° SE
Cosmos 1703 3.2 19:01:22 10° N 19:05:20 74° ENE 19:09:18 10° SSE
SL-4 R/B 1.5 19:03:02 10° WSW 19:06:26 72° SSE 19:09:52 10° ENE
Cosmos 1726 2.3 19:03:31 10° SSW 19:07:15 81° W 19:11:01 10° N
Cosmos 1437 3.8 19:04:39 10° NNW 19:07:35 45° W 19:10:29 10° S
Cosmos 2184 Rocket 4.1 19:01:27 10° N 19:07:47 88° W 19:14:00 10° S
CZ-4C R/B 4.1 19:02:42 10° NW 19:08:14 29° NNE 19:14:35 10° ENE
ADEOS Rocket 3.9 19:02:14 10° N 19:08:28 56° WNW 19:14:06 10° SW
Cosmos 1825 Rocket 3.7 19:04:17 10° NNW 19:08:41 80° W 19:13:02 10° S
Meteor 2-10 4.3 19:03:42 10° S 19:09:14 88° WNW 19:14:58 10° NNE
STARLINK-1246 3.9 19:05:53 10° WNW 19:10:01 66° NNE 19:14:09 10° E
Cosmos 407 Rocket 3.6 19:05:38 10° S 19:10:35 52° ESE 19:15:35 10° NNE
Cosmos 1908 3.3 19:07:13 10° S 19:11:01 56° E 19:14:52 10° NNE
STARLINK-1201 3.0 19:08:07 10° WNW 19:11:25 86° SSW 19:14:34 11° ESE
Cosmos 1656 Rocket 4.3 19:05:55 10° NW 19:11:29 59° WSW 19:16:56 10° S
Cosmos 1340 Rocket 3.4 19:07:45 10° SSE 19:11:30 37° E 19:15:14 10° NNE
Cosmos 1328 3.8 19:08:01 10° N 19:12:03 83° E 19:16:03 10° S
FREGAT/IRIS 2.3 19:09:25 10° SSE 19:12:08 89° ENE 19:14:52 10° NNW
Cosmos 2228 3.0 19:09:12 10° S 19:13:29 71° E 19:17:51 10° NNE
STARLINK-1224 3.8 19:10:54 10° WNW 19:15:02 68° NNE 19:19:04 11° E
STARLINK-1203 3.8 19:13:01 10° WNW 19:17:14 72° NNE 19:21:13 11° ESE
Cosmos 1943 3.6 19:11:52 10° SW 19:17:31 70° WNW 19:23:14 10° NNE
MOS 1 4.4 19:13:51 10° SSE 19:19:30 88° WSW 19:25:14 10° NNW
STARLINK-1225 3.8 19:15:53 10° WNW 19:20:02 71° NNE 19:23:51 12° E
MetOp-A 4.3 19:15:10 10° SE 19:20:23 55° ENE 19:25:37 10° N
Resurs 01 Rocket 2.4 19:17:51 10° SE 19:21:48 33° ENE 19:25:46 10° N
MOS 1 Rocket 4.3 19:17:10 10° NNE 19:22:05 34° E 19:27:00 10° SSE
STARLINK-52 3.6 19:19:57 10° SSW 19:22:53 34° SE 19:25:51 10° ENE
CZ-2C R/B 3.3 19:18:51 10° NNE 19:23:25 31° E 19:28:00 10° SSE
STARLINK-1230 3.7 19:20:51 10° WNW 19:25:00 73° NNE 19:28:37 13° ESE
Nadezhda 1 Rocket 4.0 19:19:31 10° S 19:25:52 74° E 19:32:12 10° NNE
BREEZE M DEB (TANK) 3.9 19:23:22 10° S 19:26:10 23° SE 19:31:54 10° ENE
Cosmos 1697 Rocket 4.3 19:24:05 10° N 19:28:25 22° NE 19:32:44 10° E
SPOT 3 Rocket 3.6 19:24:17 10° SSE 19:29:27 69° ENE 19:34:38 10° N
SL-24 R/B - RUBIN 2 4.3 19:24:15 10° SSW 19:29:53 71° SE 19:36:14 10° NE
STARLINK-1243 3.7 19:25:49 10° WNW 19:29:59 76° NNE 19:33:24 15° ESE
Cosmos 2154 Rocket 4.1 19:24:24 10° N 19:30:49 89° E 19:37:08 10° S
ARGOS 3.4 19:25:33 10° S 19:30:56 75° WSW 19:36:21 10° NNW
FALCON 9 DEB 3.6 19:27:52 10° SW 19:31:12 42° SSE 19:34:32 10° ENE
Cosmos 1953 Rocket 4.0 19:27:16 10° NNW 19:31:45 69° W 19:36:13 10° S
Cosmos 1606 Rocket 3.9 19:28:47 10° SSW 19:33:13 71° WNW 19:37:42 10° N
NOSS 3-4 (A) 4.3 19:26:53 10° NW 19:33:44 61° SW 19:41:16 10° SSE
NOSS 3-4 (C) 4.3 19:26:59 10° NW 19:33:50 61° SW 19:41:23 10° SSE
STARLINK-1236 3.6 19:30:48 10° WNW 19:34:58 79° NNE 19:38:11 16° ESE
Cosmos 1954 Rocket 4.3 19:30:56 10° S 19:35:52 43° ESE 19:40:47 10° NE
USA 186 2.9 19:33:19 10° S 19:36:27 43° W 19:39:26 10° NNW
STARLINK-67 4.4 19:35:39 10° W 19:37:41 21° SW 19:39:24 12° S
Cosmos 2366 rocket 4.5 19:37:44 10° N 19:43:32 42° ENE 19:48:11 16° SE
Cosmos 1818 4.4 19:38:28 10° WSW 19:43:48 55° NW 19:49:11 10° NE
Cosmos 1076 Rocket 4.4 19:40:07 10° N 19:43:59 32° ENE 19:46:20 19° ESE
STARLINK-1269 3.6 19:40:45 10° WNW 19:44:55 86° NNE 19:47:44 20° ESE
Cosmos 1656 4.4 19:42:23 10° NNW 19:47:42 39° NE 19:51:23 18° ESE
Cosmos 1763 Rocket 4.2 19:43:31 10° NNW 19:48:22 37° ENE 19:51:29 19° ESE
STARLINK-1200 3.6 19:45:44 10° WNW 19:49:55 90° ENE 19:52:31 22° ESE
STARLINK-1234 4.2 19:51:26 10° W 19:54:16 31° SW 19:55:47 20° SSE
STARLINK-1209 4.3 19:51:56 10° W 19:54:43 29° SW 19:56:15 19° S
STARLINK-1192 3.6 19:50:43 10° WNW 19:54:53 86° SSW 19:57:18 24° ESE
STARLINK-1233 3.8 19:52:14 10° WNW 19:55:12 39° SSW 19:56:38 24° SSE
STARLINK-1212 3.8 19:52:43 10° WNW 19:55:40 39° SSW 19:57:04 24° SSE
Cosmos 1455 4.2 19:56:32 14° ENE 19:56:32 14° ENE 19:58:00 10° NE
STARLINK-1105 3.8 19:53:08 10° WNW 19:56:06 39° SSW 19:57:31 24° SSE
STARLINK-1206 3.8 19:53:37 10° WNW 19:56:33 38° SSW 19:57:55 24° SSE
SeaSat 1 3.8 19:52:10 10° NNE 19:56:49 42° NW 20:01:26 10° WSW
STARLINK-1247 3.8 19:54:05 10° WNW 19:57:01 38° SSW 19:58:22 24° SSE
STARLINK-1227 3.8 19:54:29 10° WNW 19:57:26 38° SSW 19:58:47 24° SSE
Iridium 4 Rocket 3.8 19:53:48 10° NNE 19:57:34 31° ENE 19:59:06 24° ESE
STARLINK-1218 3.8 19:54:59 10° WNW 19:57:55 37° SSW 19:59:13 24° SSE
STARLINK-1226 3.8 19:55:25 10° WNW 19:58:21 37° SSW 19:59:40 24° SSE
Cosmos 1980 Rocket 3.9 19:54:22 10° N 19:58:34 21° NE 20:02:02 13° E
STARLINK-1254 3.9 19:55:51 10° WNW 19:58:47 37° SSW 20:00:06 24° SSE
STARLINK-1215 3.9 19:56:20 10° WNW 19:59:15 37° SW 20:00:32 25° SSE
STARLINK-1231 3.9 19:56:48 10° WNW 19:59:42 36° SW 20:00:58 25° SSE
Cosmos 1174 4.2 19:55:43 10° NNW 19:59:44 66° NE 20:02:39 24° SE
USA 234 4.1 19:54:30 10° ENE 19:59:47 25° SE 20:05:01 10° S
STARLINK-1244 3.6 19:55:47 10° WNW 19:59:57 82° SSW 20:02:10 27° ESE
STARLINK-1232 3.9 19:57:42 10° WNW 20:00:37 36° SW 20:01:50 25° SSE
Cosmos 1892 3.5 19:57:20 10° N 20:00:55 34° ENE 20:02:13 27° ESE
STARLINK-1217 3.9 19:58:09 10° WNW 20:01:04 36° SSW 20:02:16 25° SSE
Abrixas rocket 3.3 19:58:44 10° W 20:01:18 27° SSW 20:02:07 23° S
STARLINK-1208 3.9 19:58:34 10° WNW 20:01:29 36° SW 20:02:43 25° SSE
STARLINK-1229 3.9 19:59:03 10° WNW 20:01:57 35° SW 20:03:07 25° S
STARLINK-1271 3.9 19:59:31 10° WNW 20:02:25 35° SW 20:03:34 25° S
STARLINK-1270 4.0 19:59:58 10° WNW 20:02:51 34° SW 20:04:00 25° S
STARLINK-1154 4.0 20:00:26 10° WNW 20:03:18 34° SW 20:04:26 25° S
STARLINK-1197 4.0 20:01:20 10° W 20:04:12 34° SW 20:05:18 25° S
H-2A R/B 3.7 19:59:59 10° SSW 20:04:37 33° W 20:09:11 10° NNW
STARLINK-1189 4.0 20:01:46 10° W 20:04:38 33° SW 20:05:43 25° S
STARLINK-1138 3.6 20:00:41 10° WNW 20:04:50 78° SSW 20:06:52 29° ESE
STARLINK-1198 4.0 20:02:14 10° W 20:05:06 33° SW 20:06:10 25° S
ATLAS 5 CENTAUR R/B 1.7 20:00:56 10° SW 20:05:09 77° NW 20:10:00 10° NE
Cosmos 1825 3.9 20:02:45 10° NNE 20:05:20 17° ENE 20:05:39 17° ENE
STARLINK-1188 4.0 20:02:40 10° W 20:05:32 33° SW 20:06:35 25° S
ATLAS 2AS CENTAUR R/B 4.0 19:58:46 10° NW 20:05:36 39° WSW 20:11:54 10° S
STARLINK-1235 4.4 20:03:25 10° W 20:06:10 27° SW 20:07:18 21° S
STARLINK-1187 4.3 20:03:47 10° W 20:06:37 30° SW 20:07:42 23° S
STARLINK-1199 4.1 20:04:38 10° W 20:07:30 32° SW 20:08:31 25° S
STARLINK-1191 4.1 20:05:05 10° W 20:07:56 32° SW 20:08:56 25° S
STARLINK-1210 4.1 20:05:33 10° W 20:08:24 32° SW 20:09:23 25° S
Cosmos-2242 4.4 20:08:42 20° E 20:08:42 20° E 20:11:49 10° NE
STARLINK-1221 4.1 20:06:00 10° W 20:08:51 31° SW 20:09:49 26° S
COSMOS 2455 3.4 20:03:02 10° NW 20:08:55 56° WSW 20:13:57 14° SSE
STARLINK-1219 4.1 20:06:27 10° W 20:09:18 31° SW 20:10:15 26° S
STARLINK-1222 4.2 20:06:54 10° W 20:09:44 31° SW 20:10:40 26° S
STARLINK-1143 3.6 20:05:40 10° WNW 20:09:48 74° SSW 20:11:39 32° SE
STARLINK-1211 4.2 20:07:22 10° W 20:10:12 31° SW 20:11:07 25° S
STARLINK-1214 4.2 20:07:49 10° W 20:10:39 31° SW 20:11:33 25° S
STARLINK-1245 4.2 20:08:18 10° W 20:11:06 30° SW 20:11:57 25° S
STARLINK-1238 4.2 20:08:43 10° W 20:11:32 30° SW 20:12:25 25° S
STARLINK-1205 4.2 20:09:39 10° W 20:12:27 29° SW 20:13:16 25° S
Cosmos 1140 Rocket 3.8 20:07:32 10° SSW 20:12:42 69° WNW 20:17:52 10° NNE
STARLINK-1204 4.2 20:10:07 10° W 20:12:54 29° SW 20:13:42 25° S
ERBS 2.2 20:09:57 10° WNW 20:13:20 79° SW 20:14:20 43° SE
STARLINK-1241 3.6 20:10:41 10° WNW 20:14:49 70° SSW 20:16:28 35° SE
STARLINK-29 2.8 20:15:18 10° WSW 20:18:31 89° N 20:19:44 35° ENE
STARLINK-1239 3.7 20:15:39 10° WNW 20:19:46 66° SSW 20:21:14 37° SE
SAR-Lupe-2 3.7 20:17:02 10° NNE 20:20:33 50° E 20:21:14 42° SE
ATLAS CENTAUR R/B 2.5 20:17:29 10° NNW 20:20:57 29° NE 20:22:10 24° ENE
IGS 5A 3.9 20:20:27 34° ESE 20:21:35 43° ENE 20:25:32 10° N
Cosmos 1300 3.0 20:19:09 10° SSW 20:22:57 67° W 20:26:47 10° N
Resurs 1-3 4.5 20:18:54 10° S 20:23:05 48° W 20:27:21 10° NNW
STARLINK-1240 3.8 20:20:38 10° WNW 20:24:44 62° SSW 20:26:01 40° SSE
Spot 2 Rocket 3.5 20:22:15 28° SSE 20:24:56 69° ENE 20:30:02 10° N
STARLINK-60 3.5 20:23:08 10° W 20:26:24 57° NNW 20:27:47 29° NE
Cosmos 841 Rocket 4.0 20:22:33 10° NNW 20:27:38 44° ENE 20:29:32 32° ESE
Cosmos 1850 Rocket 4.1 20:24:21 19° S 20:27:46 49° ESE 20:32:46 10° NNE
In-Cosmos 22 Rocket 4.3 20:22:56 10° NNW 20:28:49 87° W 20:32:45 22° S
STARLINK-1216 3.8 20:25:37 10° WNW 20:29:42 58° SSW 20:30:47 42° SSE
Terra 3.0 20:29:53 25° E 20:30:53 27° ENE 20:34:52 10° N
Cosmos 2082 Rocket 4.0 20:34:09 14° ENE 20:34:09 14° ENE 20:35:39 10° ENE
SPOT 5 3.5 20:31:40 30° E 20:32:22 32° ENE 20:36:14 10° N
STPSAT 2 (USA 217) 4.5 20:28:47 10° SSW 20:33:16 87° ESE 20:37:47 10° NNE
SL-08 R/B 4.5 20:27:32 10° N 20:33:40 65° ENE 20:36:44 31° SSE
STARLINK-1237 3.9 20:30:35 10° WNW 20:34:39 55° SSW 20:35:33 44° SSE
Meteor 2-10 Rocket 4.1 20:33:52 35° ESE 20:34:55 39° E 20:39:56 10° NNE
MetOp-B 4.1 20:32:14 26° SSE 20:35:23 86° WSW 20:40:47 10° NNW
Cosmos 1833 Rocket 3.6 20:39:02 28° E 20:39:02 28° E 20:43:12 10° NE
STARLINK-1202 4.0 20:35:36 10° WNW 20:39:38 51° SSW 20:40:21 45° S
CARTOSAT-1 4.1 20:39:31 38° E 20:40:05 40° ENE 20:44:08 10° N
Cosmos 468 Rocket 4.0 20:35:03 10° NNW 20:40:15 78° WSW 20:42:31 34° SSE
SL-4 R/B 1.9 20:42:41 10° W 20:46:04 62° N 20:46:33 54° NE
Cosmos 1408 2.6 20:43:20 10° N 20:46:55 62° ENE 20:46:55 62° ENE
ERS-1 Rocket 3.1 20:47:01 44° ESE 20:48:19 58° ENE 20:53:16 10° N
STARLINK-1246 4.1 20:45:34 10° WNW 20:49:32 45° SW 20:49:54 43° SSW
RESURS DK-1 2.2 20:45:34 10° NNW 20:49:44 76° ENE 20:50:15 65° ESE
Cosmos 1766 Rocket 3.8 20:48:11 10° N 20:52:33 50° ENE 20:52:50 49° E
Cosmos 1570 Rocket 4.0 20:47:33 10° NNW 20:52:57 80° ENE 20:54:32 47° SE
BREEZE M DEB (TANK) 2.6 20:46:51 10° WSW 20:53:19 71° SSE 20:53:25 70° SSE
Okean 3 Rocket 3.6 20:49:43 10° N 20:54:08 61° ENE 20:54:34 58° ESE
Meteor 2-12 Rocket 4.4 20:48:15 10° NNW 20:54:22 81° W 20:57:31 30° S
STARLINK-1224 4.2 20:50:36 10° WNW 20:54:31 42° SW 20:54:43 41° SSW
Cosmos 2058 3.6 20:51:54 10° NNW 20:55:53 49° W 20:57:23 32° SSW
STARLINK-1203 4.4 20:52:59 10° WNW 20:56:54 38° SW 20:57:04 38° SSW
COSMOS 2406 3.1 20:54:52 26° S 20:58:01 65° ESE 21:03:43 10° NNE
CZ-4C R/B 3.1 20:51:20 10° NW 20:58:08 59° NE 21:01:48 32° ESE
Resurs 01 Rocket 3.2 20:55:17 15° SSW 20:58:17 31° W 21:02:15 10° NNW
STARLINK-52 3.7 20:55:45 10° W 20:58:27 53° WNW 20:58:27 53° WNW
STARLINK-1225 4.4 20:55:37 10° WNW 20:59:29 39° SW 20:59:31 39° SW
CZ-2C R/B 3.7 20:58:59 10° N 21:03:52 43° WNW 21:08:45 10° SW
Cosmos 1812 Rocket 4.3 21:02:25 20° SW 21:05:10 51° WNW 21:09:25 10° N
Cosmos 2151 2.8 21:03:08 10° N 21:07:22 89° WSW 21:07:34 81° S
FALCON 9 DEB 3.7 21:04:45 10° W 21:07:53 56° NW 21:07:53 56° NW
Cosmos 1697 Rocket 2.6 21:07:32 10° NNW 21:13:15 86° ENE 21:14:29 57° SE
Cosmos 2369 3.6 21:07:40 10° NNW 21:13:22 84° ENE 21:14:34 58° SE
Cosmos 1741 Rocket 4.4 21:21:15 14° SW 21:25:46 63° WNW 21:31:06 10° NNE
Cosmos 1455 2.9 21:31:25 51° NW 21:31:25 51° NW 21:34:53 10° N
Cosmos 1656 4.4 21:26:05 10° NW 21:31:27 44° WSW 21:32:50 37° SW
Cosmos 1408 Rocket 3.7 21:27:24 10° N 21:31:22 66° NNE 21:31:22 66° NNE
SPOT 1/Viking Rocket 4.2 21:30:44 40° SW 21:32:05 51° W 21:37:12 10° NNW
Cosmos 540 Rocket 3.5 21:28:44 10° NNW 21:33:53 66° WSW 21:34:20 62° SW
Cosmos 1743 Rocket 4.5 21:30:16 10° N 21:33:44 40° NE 21:33:44 40° NE
SL-16 R/B 3.4 21:30:01 10° NNW 21:35:01 30° NE 21:36:11 28° ENE
Cosmos 2360 Rocket 4.2 21:31:21 10° N 21:35:12 18° NE 21:37:32 15° ENE
Cosmos 2208 Rocket 4.3 21:30:18 10° NNW 21:35:25 57° WSW 21:36:03 53° SW
Cosmos 1825 3.4 21:37:28 10° NNW 21:40:28 40° WNW 21:40:28 40° WNW
Cosmos 2322 Rocket 3.5 21:37:03 10° NNW 21:41:56 29° NE 21:43:04 27° ENE
Nadezhda 3 Rocket 4.0 21:41:26 48° SSW 21:43:20 80° W 21:49:39 10° N
Cosmos 1980 Rocket 2.0 21:37:48 10° NNW 21:43:28 82° ENE 21:43:48 78° ESE
USA 234 3.1 21:36:56 10° ENE 21:43:31 75° SE 21:50:03 10° SW
Cosmos 2221 4.1 21:46:37 26° NE 21:46:37 26° NE 21:48:51 10° NNE
Cosmos 1814 Rocket 4.4 21:40:26 10° NNW 21:45:41 55° WSW 21:46:08 53° SW
Cosmos-2242 3.8 21:45:30 45° W 21:45:51 46° WNW 21:50:04 10° N
Cosmos 1535 Rocket 4.3 21:40:02 10° N 21:46:14 82° E 21:47:00 69° SSE
ASTEX 1 3.4 21:50:00 73° NNE 21:50:00 73° NNE 21:54:34 10° N
ATLAS 5 CENTAUR R/B 4.1 21:46:57 10° WNW 21:50:37 23° NNW 21:54:45 10° NNE
Meteor 2-3 Rocket 3.6 21:49:15 10° NNW 21:55:01 80° W 21:55:21 76° SW
Cosmos 2084 4.3 21:53:47 10° NW 21:57:21 48° N 21:57:21 48° N
ATLAS CENTAUR R/B 3.1 21:56:21 10° NW 21:58:21 26° WNW 21:58:21 26° WNW
Mayak 0.3 22:02:42 10° NNE 22:04:58 31° NNE 22:04:58 31° NNE
Terra 2.6 22:08:46 45° W 22:08:46 45° W 22:13:02 10° NNW
SPOT 5 4.1 22:10:53 30° W 22:10:53 30° W 22:14:19 10° NNW
Cosmos 1934 Rocket 4.0 22:04:37 10° NNW 22:10:50 68° W 22:11:27 64° SW
Cosmos 2278 4.2 22:09:06 10° NW 22:14:24 50° WSW 22:14:24 50° WSW
Cosmos 2082 Rocket 2.2 22:15:56 75° NNE 22:15:56 75° NNE 22:21:09 10° NNE
Cosmos 1833 Rocket 3.2 22:20:37 44° WSW 22:22:01 55° NW 22:27:35 10° NNE
Cosmos 1605 Rocket 3.9 22:23:08 10° NNW 22:29:17 75° W 22:29:21 75° WSW
Cosmos 2219 Rocket 4.3 22:28:29 10° N 22:32:19 18° NE 22:34:42 14° ENE
Cosmos 2344 4.3 22:25:29 10° NW 22:34:58 75° SW 22:38:35 51° SSE
ALOS 2 4.1 22:36:50 32° NNE 22:36:50 32° NNE 22:39:29 10° N
NOSS 2-1 (D) 4.5 22:36:41 10° NW 22:41:11 62° NNE 22:41:11 62° NNE
CZ-4C R/B 3.3 22:39:56 10° NW 22:46:51 48° WSW 22:46:59 48° SW
COSMOS 2428 4.4 22:57:25 10° NNW 23:02:04 25° NE 23:03:37 22° ENE
Cosmos 1607 4.2 23:12:04 63° NW 23:12:16 64° NW 23:18:30 10° NE
SL-16 R/B 3.0 23:13:54 10° NW 23:18:02 46° WNW 23:18:02 46° WNW
Cosmos 2360 Rocket 2.7 23:14:39 10° NNW 23:19:17 56° N 23:19:17 56° N
USA 234 3.7 23:20:03 10° ENE 23:26:25 57° NNW 23:32:47 10° W
Cosmos 2322 Rocket 3.0 23:20:51 10° NNW 23:24:52 45° NW 23:24:52 45° NW
Cosmos 1980 Rocket 4.2 23:23:02 10° WNW 23:25:34 17° W 23:25:34 17° W
Cosmos 2061 Rocket 4.1 23:25:12 10° N 23:30:49 73° N 23:30:49 73° N
Cosmos 1459 Rocket 4.3 23:30:36 10° NNW 23:36:11 59° WNW 23:36:11 59° WNW
MOS 1-B Rocket 4.2 23:34:23 10° NNE 23:40:21 77° ENE 23:40:21 77° ENE
Mayak 1.4 23:39:42 10° NNW 23:41:32 14° NW 23:41:32 14° NW
Cosmos 2333 Rocket 3.0 23:37:08 10° NNW 23:42:25 44° NE 23:42:25 44° NE
Cosmos 2237 Rocket 4.3 23:38:50 10° N 23:43:13 22° NE 23:46:25 14° E
Cosmos 2233 Rocket 4.2 23:42:05 10° N 23:47:50 63° NE 23:47:50 63° NE
SL-16 R/B 4.2 23:48:43 22° E 23:50:57 27° NE 23:55:58 10° N
